SCP
0 0 0 -0 -0 -0 0 -0 -0 -0 0 0 -0 -0 -0 0 0 0 0 0 0 0 1 0 0 0 1 2 2 1 1 1 1 1 1 0 0 0 0 0 0 0 0 0
-0 0 0 -0 -0 0 -0 0 0 0 0 0 -0 -0 -0 -0 0 0 0 0 0 -0 0 0 0 1 2 2 1 1 1 1 1 0 0 0 0 0 0 0 0 0 0 0
0 0 0 0 0 0 0 0 0 -0 0 0 0 -0 -0 -0 0 0 0 0 -0 -0 -0 -0 0 1 0 1 1 1 1 0 0 0 0 0 0 0 0 0 0 0 0 0
0 0 0 0 0 0 0 0 0 0 0 0 0 0 0 -0 0 -0 0 0 -0 -0 -0 -0 -0 0 0 0 0 0 0 0 0 0 0 0 0 0 0 0 0 0 0 0
0 0 0 0 0 -0 -0 -0 0 0 0 0 0 0 0 0 -0 0 0 0 0 -0 -0 -0 -0 0 0 0 0 0 0 0 0 0 0 0 0 0 0 0 0 0 0 0
0 0 0 0 0 -0 -0 0 0 0 0 -0 0 0 -0 -0 0 -0 -0 0 0 0 -0 -0 -0 0 0 0 0 0 0 0 -0 0 0 0 0 0 0 0 0 0 0 0
0 0 0 0 0 0 0 0 0 0 0 -0 0 0 0 0 0 0 0 0 0 0 0 0 -0 0 0 0 0 0 0 -0 0 0 0 0 0 0 0 0 0 0 -0 0
0 0 0 0 0 0 0 0 0 0 0 -0 0 0 0 0 0 0 0 0 0 0 0 -0 0 0 1 0 0 0 -0 -0 -0 0 0 0 -0 0 -0 -0 0 0 0 0
0 0 0 0 0 0 0 0 -0 -0 0 -0 0 -0 0 0 0 0 0 0 0 0 0 -0 0 0 0 0 0 -0 -0 -0 -0 0 0 0 -0 -0 0 0 0 0 0 0
0 0 0 0 0 0 0 0 0 -0 -0 -0 0 0 0 0 0 0 -0 0 0 0 0 -0 0 0 0 0 -0 -0 -0 -0 -0 -0 -0 -0 -0 -0 0 0 0 0 0 0
0 0 0 0 0 0 0 0 -0 -0 -0 0 0 0 0 0 0 -0 0 0 0 0 0 -0 0 0 0 0 0 0 -0 0 -0 0 -0 -0 -0 0 0 0 0 0 0 0
0 0 0 0 0 0 0 -0 -0 0 0 0 0 0 0 0 0 0 0 0 0 0 0 0 0 0 0 0 0 -0 -0 0 -0 0 0 -0 -0 0 -0 -0 0 0 -0 -0
0 -0 0 0 0 0 0 -0 -0 -0 0 0 0 0 0 0 0 0 0 0 0 -0 0 0 0 1 0 0 0 -0 -0 -0 0 -0 -0 -0 -0 -0 -0 -0 -0 -0 -0 0
0 0 0 0 0 0 0 0 0 -0 -0 0 0 0 0 0 0 0 0 0 0 0 -0 0 0 0 0 0 0 -0 0 -0 -0 -0 -0 -0 -0 -0 -0 -0 -0 0 -0 0
0 0 0 0 0 -0 -0 0 -0 -0 0 0 0 0 0 0 0 0 0 0 0 0 0 -0 0 0 0 0 -0 0 -0 0 0 -0 0 -0 -0 -0 -0 -0 0 0 0 0
0 0 0 0 -0 -0 -0 0 -0 0 0 0 0 0 0 0 0 0 0 0 0 -0 -0 0 -0 0 0 0 -0 -0 -0 0 0 0 0 -0 -0 -0 -0 0 0 0 0 0
0 0 0 -0 0 -0 -0 -0 0 0 0 0 0 0 0 0 0 0 0 0 0 0 0 0 0 0 0 0 0 -0 0 -0 0 0 -0 -0 -0 -0 -0 0 0 0 0 0
0 0 0 0 -0 0 0 -0 0 0 0 0 0 0 0 0 0 0 0 0 0 0 0 0 0 0 0 0 0 0 0 0 0 0 0 -0 -0 -0 0 0 0 0 -0 -0
0 0 -0 -0 -0 0 -0 0 0 0 0 0 0 0 0 0 0 0 0 0 0 0 0 0 0 0 0 0 0 0 0 -0 -0 0 0 -0 -0 0 0 0 0 -0 -0 0
0 0 -0 -0 0 0 -0 0 0 0 0 0 0 0 0 0 0 0 0 0 0 0 0 0 0 0 0 0 0 -0 0 0 0 0 -0 0 0 0 0 0 0 -0 -0 -0
0 0 -0 -0 0 0 -0 0 0 0 0 0 0 0 0 0 0 0 0 0 0 0 0 0 0 0 0 0 0 0 0 0 0 0 0 0 0 0 -0 -0 -0 -0 0 0
0 0 -0 -0 -0 -0 -0 0 0 0 0 0 0 0 0 0 0 0 0 0 0 0 0 0 0 0 0 -0 0 -0 -0 0 0 0 0 0 0 0 0 -0 0 0 0 0
0 0 -0 -0 -0 -0 -0 -0 0 0 0 0 0 0 0 0 0 0 0 0 0 0 0 0 0 0 -0 -0 0 0 -0 0 0 0 0 0 0 0 0 0 0 0 0 0
-0 -0 -0 -0 -0 -0 -0 -0 -0 0 0 0 0 0 0 0 0 0 0 0 0 -0 0 0 0 0 -0 -0 -0 -0 -0 0 0 0 0 0 0 0 0 0 0 0 0 0
0 0 0 -0 0 0 -0 -0 -0 -0 0 0 0 0 0 0 0 0 0 0 0 0 0 0 0 0 0 0 0 -0 0 0 0 0 0 0 0 0 0 0 0 0 0 0
0 -0 -0 -0 -0 0 -0 -0 -0 -0 -0 -0 -0 0 0 0 0 0 0 0 0 0 0 0 0 0 0 0 0 0 -0 0 0 0 0 0 0 0 0 0 0 0 0 0
-0 0 0 0 0 0 0 0 0 -0 -0 -0 -0 0 0 0 0 0 0 0 0 0 0 0 0 0 0 0 0 0 0 0 0 0 0 0 0 0 0 0 0 0 0 0
Wind_Speed_500mb
29 40 44 47 44 39 35 22 24 35 46 9 9 13 6 12 30 42 81 88 89 21 20 35 38 47 72 66 59 54 56 56 60 57 48 47 45 45 44 46 44 38 37 31
37 38 33 40 36 33 31 21 11 31 23 25 11 22 8 16 41 65 69 72 43 15 23 37 43 39 65 66 64 64 60 54 48 48 48 46 42 40 39 42 41 35 36 33
14 24 35 12 16 19 20 20 23 5 21 31 23 2 19 40 44 60 54 82 18 20 25 43 46 26 61 66 62 66 58 53 51 54 49 45 44 41 37 36 39 36 37 30
9 16 7 5 13 10 17 19 14 18 25 30 38 49 61 34 48 59 72 80 30 33 45 45 43 61 61 63 61 60 60 57 52 49 46 42 41 45 37 35 34 40 33 33
4 5 23 2 6 5 8 12 18 14 21 33 50 52 49 36 58 56 62 67 32 29 31 46 35 34 62 67 65 62 61 56 53 46 44 43 41 46 38 36 33 35 32 29
3 7 8 4 13 21 16 7 11 6 15 18 30 16 20 70 72 67 63 60 61 55 51 47 44 40 58 70 68 61 56 52 53 49 39 42 43 45 41 36 34 33 30 24
13 10 12 6 17 14 4 7 13 16 24 26 17 27 57 68 69 64 66 66 57 57 57 49 30 41 52 69 64 55 49 63 56 42 44 41 45 43 36 31 35 33 29 23
7 8 11 13 6 8 9 37 29 24 24 38 40 43 55 59 67 74 70 66 58 59 52 34 30 37 66 60 57 56 54 54 48 49 41 38 40 38 30 36 37 36 26 22
8 9 30 16 23 29 26 32 33 45 39 57 60 44 46 56 62 73 68 60 58 51 52 44 51 36 53 54 58 63 58 60 53 44 39 38 36 34 38 37 39 36 28 29
12 11 14 25 17 14 13 33 57 49 50 54 58 49 47 54 70 68 65 55 47 45 37 49 28 45 53 53 55 69 61 55 48 40 32 32 27 28 35 38 38 33 31 33
10 29 32 20 17 16 30 30 49 49 57 51 52 52 51 56 68 65 61 46 47 47 40 51 46 46 46 53 67 60 50 47 42 42 37 36 31 29 26 30 35 31 32 24
6 40 34 12 18 25 27 43 50 53 44 44 46 53 53 62 69 64 51 43 46 44 38 38 49 54 51 55 57 52 52 48 50 39 39 38 31 27 24 25 32 35 33 23
17 40 9 8 16 17 37 49 44 43 44 49 40 41 44 52 58 50 46 44 39 45 43 56 49 53 48 61 54 53 52 52 42 41 39 34 27 27 25 26 26 32 35 24
34 13 10 14 14 35 45 39 48 36 41 34 28 31 33 38 43 48 49 43 32 45 44 47 39 45 62 58 57 49 48 39 48 43 40 32 28 27 25 30 37 37 35 31
8 22 14 17 44 48 42 51 38 45 38 33 24 21 15 15 21 18 22 34 35 45 43 54 54 57 57 62 57 53 45 42 50 46 43 33 30 27 27 32 36 40 41 34
20 24 21 39 38 47 34 41 40 47 42 39 31 27 19 15 22 25 5 17 29 40 47 49 57 70 61 65 61 53 42 45 55 46 48 42 39 34 35 30 30 38 36 33
28 24 33 44 41 48 35 35 41 44 39 37 31 28 20 14 25 28 24 22 50 24 40 38 56 63 70 71 59 44 45 36 40 42 48 51 44 37 29 31 26 35 33 29
22 20 34 22 36 38 36 36 40 44 39 33 24 17 17 24 22 25 30 43 40 32 40 42 57 79 73 67 56 48 47 44 48 53 54 48 38 34 31 33 27 36 38 35
21 25 28 31 37 35 29 34 39 45 41 31 25 29 22 16 26 24 24 21 52 40 33 49 59 75 70 68 56 50 45 40 46 41 47 43 41 39 35 34 32 38 48 61
21 28 26 32 38 39 35 33 37 46 47 39 32 36 37 24 19 23 36 32 38 39 28 47 67 77 59 53 50 35 52 47 43 27 55 51 52 51 46 34 36 37 53 56
24 26 24 36 46 45 45 34 36 46 48 51 46 44 43 40 31 25 37 36 21 28 41 49 53 66 51 39 39 46 39 50 42 32 55 60 59 57 52 44 41 50 49 43
19 22 17 23 36 47 54 44 37 43 49 54 50 46 53 51 50 44 44 44 21 18 26 44 47 38 37 35 34 34 44 50 47 45 36 54 69 73 63 58 60 56 48 45
16 19 16 19 29 35 48 55 46 42 48 53 50 48 55 54 58 57 59 49 37 20 15 22 23 23 24 34 41 41 42 51 55 53 47 63 83 86 75 74 74 69 63 61
21 16 20 24 25 31 41 50 54 43 42 45 49 46 45 51 55 54 49 47 43 35 31 20 15 9 12 21 40 47 49 57 65 70 77 76 75 81 78 77 75 75 72 69
15 20 21 25 24 33 33 41 42 50 43 45 47 48 49 50 53 51 49 42 34 29 31 31 26 16 17 26 32 44 53 58 62 66 65 68 72 71 72 71 68 65 63 58
12 16 20 16 23 25 19 27 38 44 49 51 51 51 51 51 51 50 50 45 39 37 39 41 39 35 35 35 39 41 47 49 50 52 58 61 64 67 67 64 60 56 54 56
8 5 7 18 21 20 15 21 27 35 43 52 53 48 52 55 53 54 59 60 55 48 43 45 45 44 48 43 42 43 50 53 55 58 57 62 66 70 73 73 74 74 76 78
Wind_Direction_500mb
272 277 282 282 287 293 296 278 280 292 273 319 227 145 121 13 346 296 289 290 293 312 342 307 241 219 187 176 178 178 177 175 169 172 176 181 169 169 162 160 166 176 178 186
287 286 285 271 271 277 296 329 334 2 313 355 326 138 171 263 278 278 278 296 290 343 337 308 259 237 180 176 171 170 171 172 168 167 174 172 164 160 162 167 179 187 183 189
272 304 308 302 22 351 336 325 326 350 321 345 6 359 266 267 277 293 332 338 320 322 319 340 308 207 165 161 169 162 162 162 164 165 167 166 166 170 167 171 168 176 182 187
276 308 313 100 31 352 342 6 20 1 349 331 330 330 315 338 351 341 340 335 314 318 316 338 334 163 175 157 159 149 151 156 160 163 165 170 169 164 166 175 173 178 190 194
258 260 269 324 338 6 344 339 64 12 332 331 327 324 297 355 348 328 324 331 319 303 315 329 287 172 161 152 149 148 152 158 163 168 166 169 169 167 175 177 181 181 193 192
310 276 265 226 271 303 318 253 100 27 320 316 323 297 292 314 327 319 312 323 319 319 324 317 315 213 158 145 149 150 160 160 169 172 166 165 171 177 179 188 186 186 190 193
243 249 264 178 239 288 351 235 348 313 290 290 295 281 293 303 306 307 304 302 308 320 327 328 330 200 163 154 157 156 160 170 174 165 162 167 177 182 180 182 182 185 187 186
210 225 285 192 208 205 253 305 307 304 310 299 285 290 290 300 294 295 291 293 303 328 331 313 259 222 149 160 158 164 170 175 171 159 162 169 176 179 182 179 181 176 178 169
208 265 308 287 235 250 286 285 312 314 312 307 293 291 286 286 284 286 289 289 300 318 320 288 182 208 163 158 164 159 152 149 147 152 160 167 170 178 175 181 183 178 177 170
349 267 250 274 199 216 247 306 311 294 315 301 289 288 282 280 281 286 290 292 298 307 301 279 246 182 167 167 166 152 142 142 148 152 150 156 167 175 178 184 185 186 187 172
252 272 320 154 220 235 296 308 307 296 302 287 284 283 277 276 279 281 280 283 284 289 294 282 262 183 162 159 155 146 146 138 143 150 155 156 158 165 178 192 192 189 180 178
276 312 286 250 262 288 292 310 312 309 303 294 285 282 279 277 273 275 280 278 287 287 295 253 199 169 160 155 160 155 146 148 149 153 166 171 170 167 177 190 191 189 195 187
274 277 242 298 297 286 317 318 312 317 309 300 295 288 278 275 277 274 278 281 266 281 282 242 188 160 169 160 174 160 157 154 158 165 169 175 178 186 179 170 174 187 174 177
288 325 349 338 331 334 328 317 327 330 331 320 304 291 283 281 285 284 268 267 259 261 247 195 170 165 165 162 165 164 160 165 167 165 170 171 167 159 179 171 159 158 163 162
0 36 23 343 340 338 330 338 345 339 342 345 333 331 330 306 339 340 262 257 237 214 222 218 199 173 171 167 160 152 158 166 173 170 173 178 174 152 147 162 168 166 164 164
30 13 2 353 345 338 342 352 349 346 1 360 356 5 10 17 47 53 283 235 186 213 209 199 186 172 170 162 159 156 168 167 174 174 177 184 178 161 162 162 161 176 172 172
30 23 12 2 349 340 353 356 355 358 11 12 10 4 3 30 74 89 106 143 177 191 187 178 155 166 165 161 158 165 176 171 180 205 195 181 176 175 173 169 161 168 170 171
46 28 20 10 353 350 356 1 5 11 17 16 29 24 29 53 50 88 115 144 156 162 155 148 126 161 162 159 160 169 167 152 152 163 170 177 173 172 153 159 149 143 150 149
49 41 26 23 4 6 4 9 12 18 28 40 49 47 43 65 86 92 98 115 137 128 142 126 139 156 163 161 170 173 171 165 171 172 190 175 166 167 157 157 156 144 143 129
52 38 27 18 21 9 13 24 25 32 36 47 53 64 63 64 94 104 96 89 85 122 111 123 147 154 164 164 172 176 176 163 173 185 184 179 168 160 162 164 166 154 149 146
59 45 26 18 32 24 25 27 30 38 39 47 52 56 63 72 81 103 109 125 51 72 94 118 144 157 168 154 157 163 168 167 166 144 172 181 175 165 165 158 151 152 150 153
60 48 28 22 31 35 29 31 35 38 38 45 48 57 69 73 77 79 93 118 70 62 78 102 122 138 146 160 167 168 166 165 154 166 167 157 168 153 148 150 151 155 161 166
47 28 30 28 30 32 35 33 37 40 41 43 44 49 57 62 65 71 72 82 79 74 64 75 83 117 114 135 144 154 152 164 165 162 167 161 160 162 164 162 162 164 160 158
47 37 48 47 39 32 42 34 35 46 53 49 50 54 57 66 69 69 70 73 71 79 78 77 57 97 161 132 145 150 155 154 153 150 151 151 156 162 164 165 159 157 158 159
69 71 68 46 31 30 45 41 41 45 59 61 63 62 61 64 66 65 69 75 90 95 83 70 82 106 120 136 144 142 144 147 147 147 151 152 153 155 157 157 156 153 150 150
97 70 93 71 75 63 54 40 54 51 57 66 68 71 73 74 77 78 80 83 88 95 98 95 85 91 107 126 134 140 141 142 146 149 148 146 148 150 150 150 149 148 146 140
91 134 124 61 59 51 75 76 61 59 59 65 73 76 83 86 86 87 87 84 83 89 94 93 93 95 101 105 110 123 132 135 135 136 138 140 141 140 138 137 134 131 127 125
Wind_Speed_850mb
29 40 44 47 44 39 35 22 24 35 46 9 9 13 6 12 30 42 81 88 89 21 20 35 38 47 72 66 59 54 56 56 60 57 48 47 45 45 44 46 44 38 37 31
37 38 33 40 36 33 31 21 11 31 23 25 11 22 8 16 41 65 69 72 43 15 23 37 43 39 65 66 64 64 60 54 48 48 48 46 42 40 39 42 41 35 36 33
14 24 35 12 16 19 20 20 23 5 21 31 23 2 19 40 44 60 54 82 18 20 25 43 46 26 61 66 62 66 58 53 51 54 49 45 44 41 37 36 39 36 37 30
9 16 7 5 13 10 17 19 14 18 25 30 38 49 61 34 48 59 72 80 30 33 45 45 43 61 61 63 61 60 60 57 52 49 46 42 41 45 37 35 34 40 33 33
4 5 23 2 6 5 8 12 18 14 21 33 50 52 49 36 58 56 62 67 32 29 31 46 35 34 62 67 65 62 61 56 53 46 44 43 41 46 38 36 33 35 32 29
3 7 8 4 13 21 16 7 11 6 15 18 30 16 20 70 72 67 63 60 61 55 51 47 44 40 58 70 68 61 56 52 53 49 39 42 43 45 41 36 34 33 30 24
13 10 12 6 17 14 4 7 13 16 24 26 17 27 57 68 69 64 66 66 57 57 57 49 30 41 52 69 64 55 49 63 56 42 44 41 45 43 36 31 35 33 29 23
7 8 11 13 6 8 9 37 29 24 24 38 40 43 55 59 67 74 70 66 58 59 52 34 30 37 66 60 57 56 54 54 48 49 41 38 40 38 30 36 37 36 26 22
8 9 30 16 23 29 26 32 33 45 39 57 60 44 46 56 62 73 68 60 58 51 52 44 51 36 53 54 58 63 58 60 53 44 39 38 36 34 38 37 39 36 28 29
12 11 14 25 17 14 13 33 57 49 50 54 58 49 47 54 70 68 65 55 47 45 37 49 28 45 53 53 55 69 61 55 48 40 32 32 27 28 35 38 38 33 31 33
10 29 32 20 17 16 30 30 49 49 57 51 52 52 51 56 68 65 61 46 47 47 40 51 46 46 46 53 67 60 50 47 42 42 37 36 31 29 26 30 35 31 32 24
6 40 34 12 18 25 27 43 50 53 44 44 46 53 53 62 69 64 51 43 46 44 38 38 49 54 51 55 57 52 52 48 50 39 39 38 31 27 24 25 32 35 33 23
17 40 9 8 16 17 37 49 44 43 44 49 40 41 44 52 58 50 46 44 39 45 43 56 49 53 48 61 54 53 52 52 42 41 39 34 27 27 25 26 26 32 35 24
34 13 10 14 14 35 45 39 48 36 41 34 28 31 33 38 43 48 49 43 32 45 44 47 39 45 62 58 57 49 48 39 48 43 40 32 28 27 25 30 37 37 35 31
8 22 14 17 44 48 42 51 38 45 38 33 24 21 15 15 21 18 22 34 35 45 43 54 54 57 57 62 57 53 45 42 50 46 43 33 30 27 27 32 36 40 41 34
20 24 21 39 38 47 34 41 40 47 42 39 31 27 19 15 22 25 5 17 29 40 47 49 57 70 61 65 61 53 42 45 55 46 48 42 39 34 35 30 30 38 36 33
28 24 33 44 41 48 35 35 41 44 39 37 31 28 20 14 25 28 24 22 50 24 40 38 56 63 70 71 59 44 45 36 40 42 48 51 44 37 29 31 26 35 33 29
22 20 34 22 36 38 36 36 40 44 39 33 24 17 17 24 22 25 30 43 40 32 40 42 57 79 73 67 56 48 47 44 48 53 54 48 38 34 31 33 27 36 38 35
21 25 28 31 37 35 29 34 39 45 41 31 25 29 22 16 26 24 24 21 52 40 33 49 59 75 70 68 56 50 45 40 46 41 47 43 41 39 35 34 32 38 48 61
21 28 26 32 38 39 35 33 37 46 47 39 32 36 37 24 19 23 36 32 38 39 28 47 67 77 59 53 50 35 52 47 43 27 55 51 52 51 46 34 36 37 53 56
24 26 24 36 46 45 45 34 36 46 48 51 46 44 43 40 31 25 37 36 21 28 41 49 53 66 51 39 39 46 39 50 42 32 55 60 59 57 52 44 41 50 49 43
19 22 17 23 36 47 54 44 37 43 49 54 50 46 53 51 50 44 44 44 21 18 26 44 47 38 37 35 34 34 44 50 47 45 36 54 69 73 63 58 60 56 48 45
16 19 16 19 29 35 48 55 46 42 48 53 50 48 55 54 58 57 59 49 37 20 15 22 23 23 24 34 41 41 42 51 55 53 47 63 83 86 75 74 74 69 63 61
21 16 20 24 25 31 41 50 54 43 42 45 49 46 45 51 55 54 49 47 43 35 31 20 15 9 12 21 40 47 49 57 65 70 77 76 75 81 78 77 75 75 72 69
15 20 21 25 24 33 33 41 42 50 43 45 47 48 49 50 53 51 49 42 34 29 31 31 26 16 17 26 32 44 53 58 62 66 65 68 72 71 72 71 68 65 63 58
12 16 20 16 23 25 19 27 38 44 49 51 51 51 51 51 51 50 50 45 39 37 39 41 39 35 35 35 39 41 47 49 50 52 58 61 64 67 67 64 60 56 54 56
8 5 7 18 21 20 15 21 27 35 43 52 53 48 52 55 53 54 59 60 55 48 43 45 45 44 48 43 42 43 50 53 55 58 57 62 66 70 73 73 74 74 76 78
Wind_Direction_850mb
272 277 282 282 287 293 296 278 280 292 273 319 227 145 121 13 346 296 289 290 293 312 342 307 241 219 187 176 178 178 177 175 169 172 176 181 169 169 162 160 166 176 178 186
287 286 285 271 271 277 296 329 334 2 313 355 326 138 171 263 278 278 278 296 290 343 337 308 259 237 180 176 171 170 171 172 168 167 174 172 164 160 162 167 179 187 183 189
272 304 308 302 22 351 336 325 326 350 321 345 6 359 266 267 277 293 332 338 320 322 319 340 308 207 165 161 169 162 162 162 164 165 167 166 166 170 167 171 168 176 182 187
276 308 313 100 31 352 342 6 20 1 349 331 330 330 315 338 351 341 340 335 314 318 316 338 334 163 175 157 159 149 151 156 160 163 165 170 169 164 166 175 173 178 190 194
258 260 269 324 338 6 344 339 64 12 332 331 327 324 297 355 348 328 324 331 319 303 315 329 287 172 161 152 149 148 152 158 163 168 166 169 169 167 175 177 181 181 193 192
310 276 265 226 271 303 318 253 100 27 320 316 323 297 292 314 327 319 312 323 319 319 324 317 315 213 158 145 149 150 160 160 169 172 166 165 171 177 179 188 186 186 190 193
243 249 264 178 239 288 351 235 348 313 290 290 295 281 293 303 306 307 304 302 308 320 327 328 330 200 163 154 157 156 160 170 174 165 162 167 177 182 180 182 182 185 187 186
210 225 285 192 208 205 253 305 307 304 310 299 285 290 290 300 294 295 291 293 303 328 331 313 259 222 149 160 158 164 170 175 171 159 162 169 176 179 182 179 181 176 178 169
208 265 308 287 235 250 286 285 312 314 312 307 293 291 286 286 284 286 289 289 300 318 320 288 182 208 163 158 164 159 152 149 147 152 160 167 170 178 175 181 183 178 177 170
349 267 250 274 199 216 247 306 311 294 315 301 289 288 282 280 281 286 290 292 298 307 301 279 246 182 167 167 166 152 142 142 148 152 150 156 167 175 178 184 185 186 187 172
252 272 320 154 220 235 296 308 307 296 302 287 284 283 277 276 279 281 280 283 284 289 294 282 262 183 162 159 155 146 146 138 143 150 155 156 158 165 178 192 192 189 180 178
276 312 286 250 262 288 292 310 312 309 303 294 285 282 279 277 273 275 280 278 287 287 295 253 199 169 160 155 160 155 146 148 149 153 166 171 170 167 177 190 191 189 195 187
274 277 242 298 297 286 317 318 312 317 309 300 295 288 278 275 277 274 278 281 266 281 282 242 188 160 169 160 174 160 157 154 158 165 169 175 178 186 179 170 174 187 174 177
288 325 349 338 331 334 328 317 327 330 331 320 304 291 283 281 285 284 268 267 259 261 247 195 170 165 165 162 165 164 160 165 167 165 170 171 167 159 179 171 159 158 163 162
0 36 23 343 340 338 330 338 345 339 342 345 333 331 330 306 339 340 262 257 237 214 222 218 199 173 171 167 160 152 158 166 173 170 173 178 174 152 147 162 168 166 164 164
30 13 2 353 345 338 342 352 349 346 1 360 356 5 10 17 47 53 283 235 186 213 209 199 186 172 170 162 159 156 168 167 174 174 177 184 178 161 162 162 161 176 172 172
30 23 12 2 349 340 353 356 355 358 11 12 10 4 3 30 74 89 106 143 177 191 187 178 155 166 165 161 158 165 176 171 180 205 195 181 176 175 173 169 161 168 170 171
46 28 20 10 353 350 356 1 5 11 17 16 29 24 29 53 50 88 115 144 156 162 155 148 126 161 162 159 160 169 167 152 152 163 170 177 173 172 153 159 149 143 150 149
49 41 26 23 4 6 4 9 12 18 28 40 49 47 43 65 86 92 98 115 137 128 142 126 139 156 163 161 170 173 171 165 171 172 190 175 166 167 157 157 156 144 143 129
52 38 27 18 21 9 13 24 25 32 36 47 53 64 63 64 94 104 96 89 85 122 111 123 147 154 164 164 172 176 176 163 173 185 184 179 168 160 162 164 166 154 149 146
59 45 26 18 32 24 25 27 30 38 39 47 52 56 63 72 81 103 109 125 51 72 94 118 144 157 168 154 157 163 168 167 166 144 172 181 175 165 165 158 151 152 150 153
60 48 28 22 31 35 29 31 35 38 38 45 48 57 69 73 77 79 93 118 70 62 78 102 122 138 146 160 167 168 166 165 154 166 167 157 168 153 148 150 151 155 161 166
47 28 30 28 30 32 35 33 37 40 41 43 44 49 57 62 65 71 72 82 79 74 64 75 83 117 114 135 144 154 152 164 165 162 167 161 160 162 164 162 162 164 160 158
47 37 48 47 39 32 42 34 35 46 53 49 50 54 57 66 69 69 70 73 71 79 78 77 57 97 161 132 145 150 155 154 153 150 151 151 156 162 164 165 159 157 158 159
69 71 68 46 31 30 45 41 41 45 59 61 63 62 61 64 66 65 69 75 90 95 83 70 82 106 120 136 144 142 144 147 147 147 151 152 153 155 157 157 156 153 150 150
97 70 93 71 75 63 54 40 54 51 57 66 68 71 73 74 77 78 80 83 88 95 98 95 85 91 107 126 134 140 141 142 146 149 148 146 148 150 150 150 149 148 146 140
91 134 124 61 59 51 75 76 61 59 59 65 73 76 83 86 86 87 87 84 83 89 94 93 93 95 101 105 110 123 132 135 135 136 138 140 141 140 138 137 134 131 127 125